Regional Weather Roundup
Issued by NWS Cleveland, OH

Home | Current Version | Previous Version | Text Only | Print | Product List | Glossary On
Versions: 1 2 3 4 5 6 7 8 9 10 11 12 13 14 15 16 17 18 19 20 21 22 23 24 25 26 27 28 29 30 31 32 33 34 35 36 37 38 39 40 41 42 43 44 45 46 47 48 49 50
000
ASUS41 KCLE 281510
RWRCLE
OHIO REGIONAL WEATHER ROUNDUP
NATIONAL WEATHER SERVICE WILMINGTON, OH
1100 AM EDT TUE JUL 28 2015

NOTE: "FAIR" INDICATES FEW OR NO CLOUDS BELOW 12,000 FEET WITH NO
SIGNIFICANT WEATHER AND/OR OBSTRUCTIONS TO VISIBILITY.

OHZ001>008-015>018-024>027-034-035-043-044-281600-
   NORTHWEST OHIO

CITY           SKY/WX    TMP DP  RH WIND       PRES   REMARKS
DEFIANCE       SUNNY     83  67  58 VRB3      30.02F
FINDLAY        SUNNY     82  67  60 SE3       30.02F
TOLEDO EXPRESS SUNNY     82  65  56 SE5       30.02F
TOLEDO EXEC    SUNNY     84  66  54 E5        30.03F
LIMA           SUNNY     83  66  56 SE9       30.02F
$$

OHZ009>014-019>023-028>033-038-089-281600-
   NORTHEAST OHIO

CITY           SKY/WX    TMP DP  RH WIND       PRES   REMARKS
CLE-HOPKINS    SUNNY     87  65  47 CALM      30.04F
CLE-LAKEFRONT  SUNNY     81  67  62 N6        30.02F
CUY CO. ARPT   MOSUNNY   86  68  54 S9        30.05S
LORAIN-ELYRIA  SUNNY     82  64  54 SE5       30.04F
ASHTABULA      SUNNY     84  64  50 CALM      30.07S
AKRON-CANTON   SUNNY     84  67  56 E7        30.05S
WOOSTER        SUNNY     83  70  64 SE5       30.05F
MANSFIELD      SUNNY     83  66  56 E5        30.06S
YOUNGSTOWN     SUNNY     83  66  56 E6        30.06S
$$

OHZ042-051>053-060>062-070>072-077>081-281600-
  SOUTHWEST OHIO

CITY           SKY/WX    TMP DP  RH WIND       PRES   REMARKS
CINC-COVINGTON MOSUNNY   84  72  67 CALM      30.01S
CINC-LUNKEN    MOSUNNY   83  76  79 W3        30.00F HX  91
HAMILTON       MOSUNNY   85  74  69 CALM      30.01F HX  92
DAYTON         MOSUNNY   82  71  69 E7        30.03F
WRIGHT-PAT AFB SUNNY     82  73  74 VRB2      30.01F
DAYTON GENERAL SUNNY     82  71  69 E5        30.01F
WILMINGTON     SUNNY     80  71  74 SE5       30.02F
$$

OHZ036-037-039>041-045>050-054>059-063>069-073>076-082>088-281600-
  CENTRAL AND SOUTHEAST OHIO

CITY           SKY/WX    TMP DP  RH WIND       PRES   REMARKS
COLUMBUS       MOSUNNY   85  66  53 E3        30.01S
OSU AIRPORT    SUNNY     83  68  60 NE3       30.02F
BOLTON FIELD   SUNNY     81  70  69 CALM      30.02F
RICKENBACK AFB MOSUNNY   78  69  72 CALM      30.01S
NEWARK         SUNNY     83  68  60 VRB3      30.02F
MARION         SUNNY     84  64  50 VRB5      30.03F
LANCASTER      SUNNY     83  70  64 VRB3      30.02S
ZANESVILLE     SUNNY     82  67  60 CALM      30.03S
NEW PHILLY     SUNNY     82  72  71 CALM      30.03F
$$


USA.gov is the U.S. government's official web portal to all federal, state and local government web resources and services.